APEX ARIES 1, 59129

Orbit data source: Space-Track

APEX ARIES 1, 59129 is a payload satellite owned by Apex (US) in SSO that was launched on Mon, 04 Mar 2024 UTC via an FALCON 9 launch vehicle from the Air Force Western Test Range (AFWTR). Payload-class satellites include a variety of spacecraft equipped with specific instruments for various scientific and technological missions. These include communications satellites like Starlink; space stations such as the ISS; scientific satellites like the Hubble; Earth observation satellites from companies like Planet Labs, Umbra, and HawkEye 360; GPS; miniature CubeSats for education and research; and military/defense satellites.

Loading next visibility...
Identifier
59129, 2024-043AH
Orbit
SSO
Country
Flag of USUS
Related business
Manufacturer
Apex
Mission
Operational Commercial Technology
Bus & Motor
ARIES, Unknown motor
Mass
200 kg wet, 200 kg dry
Launch date (UTC)
2024-03-04 (2 years ago)
Launch vehicle
FALCON 9
Launch site
Air Force Western Test Range (AFWTR)
Object type
Payload
Rocket body
Debris
Shape & HBR
Box + 2 Pan, 1.8 m
Radar Cross Section
1.983 m², Medium (>0.1 m² and < 1m²)

Expand to show TLE details & history
Last TLE update: 23 hours ago

TLE from 23 hours ago
0 APEX ARIES 1
1 59129U 24043AH  26235.16087124  .00023497  00000-0  30506-3 0  9998
2 59129  97.5544  29.3277 0003872 326.7573  33.3439 15.58826142138341
Epoch: 2026-08-23T03:51Z
TLE epoch observation values (Epoch: 2026-08-23T03:51:39.275Z)
Latitude
0.00001°
Longitude
-0.04685°
Altitude
392.002 km
Speed
7.676 km/s
True Right ascension
01h 57m 18s
True Declination
0° 00' 00"
Sunlit
Object was in full shadow at epoch
Visualization orbit readout
Latitude
Unknown
Longitude
Unknown
Altitude
Unknown
Speed
Unknown
Apparent Right ascension
Unknown
Apparent Declination
Unknown
Sunlit
N/A
Visualization observer readout
Local Sidereal Time
17:50:25
Azimuth
Unknown
Elevation
Unknown
Doppler factor
Unknown
Orbital elements
Apogee altitude
390.594 km
Perigee altitude
385.354 km
Semi-major axis
6,766.111 km
Eccentricity
0.00039
Inclination
97.5544°
RAAN
29.3277°
Arg. of periapsis
326.7573°
True anomaly
33.3683°
Mean anomaly
33.3439°
Eccentric anomaly
33.3561°
Mean motion
3.89973 °/min
Orbital period
92.31 mins
BSTAR
0.00030506
Loading maneuver chart data...
Computing Atmospheric mass density...
Loading historical data...
Loading historical data...
Loading historical data...
Loading historical data...
Loading historical data...
Loading historical data...
Loading historical data...

Documentation

Showing up to 5 results
|